HJ3GNC-12 Weather Reports


time (UTC)temp
C
wind
direction
speed
KPH
gust
KPH
rain 1hr
cm
rain 24hr
cm
rain mn
cm
humidity
%
barometer
mb
20260504223050 16 120 0.0 0.0 0.00 0.00 0.00 72 1015.0
20260504205623 16 127 0.0 0.0 0.00 0.00 0.00 68 1014.0
20260504204030 16 127 0.0 0.0 0.00 0.00 0.00 68 1014.0
20260504202445 16 125 0.0 0.0 0.00 0.00 0.00 68 1014.0
20260504200833 16 125 0.0 0.0 0.00 0.00 0.00 68 1014.0
20260504195249 16 125 0.0 0.0 0.00 0.00 0.00 68 1014.0
20260504193707 17 125 0.0 0.0 0.00 0.00 0.00 68 1014.0
20260504192127 17 0 0.0 0.0 0.00 0.00 0.00 68 1014.0
20260504190537 17 0 0.0 0.0 0.00 0.00 0.00 67 1014.0
20260504184956 17 150 0.0 0.0 0.00 0.00 0.00 67 1014.0
20260504183412 17 150 0.0 0.0 0.00 0.00 0.00 68 1014.0
20260504181831 17 150 0.0 0.0 0.00 0.00 0.00 69 1015.0
20260504180248 17 120 0.0 0.0 0.00 0.00 0.00 70 1015.0
20260504174705 17 120 0.0 0.0 0.00 0.00 0.00 72 1015.0
20260504173120 17 120 0.0 0.0 0.00 0.00 0.00 75 1015.0
20260504171538 17 120 0.0 0.0 0.00 0.00 0.00 79 1016.0
20260504141151 13 0 0.0 0.0 0.00 0.00 0.00 99 1017.0
20260504100426 11 0 0.0 0.0 0.00 0.00 0.00 99 1018.0
20260504081319 11 20 0.0 0.0 0.00 0.00 0.00 99 1018.0
20260504035842 12 340 0.0 0.0 0.00 0.00 0.00 99 1020.0
20260504034249 13 340 0.0 0.0 0.00 0.00 0.00 99 1020.0
20260504032701 13 340 0.0 0.0 0.00 0.00 0.00 98 1020.0
20260504031115 13 340 0.0 0.0 0.00 0.00 0.00 98 1020.0
20260504025511 13 0 0.0 0.0 0.00 0.00 0.00 98 1020.0
20260504023852 13 0 0.0 0.0 0.00 0.00 0.00 98 1020.0
20260504020658 13 0 0.0 0.0 0.00 0.00 0.00 97 1019.0
20260504015107 13 0 0.0 0.0 0.00 0.00 0.00 97 1019.0
20260504013501 13 0 0.0 0.0 0.00 0.00 0.00 94 1019.0
20260504011836 13 0 0.0 0.0 0.00 0.00 0.00 93 1018.0
20260503225113 15 145 0.0 0.0 0.00 0.00 0.00 77 1016.0